Wind_Speed
21 21 21 21 21 19 21 24 24 22 21 20 19 18 17 14 12 12 12 11 10 9 9 9 9 9 9 9 9 10 10 11 10 10 11 11 11 11 10 9 7 7
23 20 20 22 23 21 21 23 23 22 22 20 18 17 16 14 13 13 13 12 11 10 9 10 10 10 9 9 9 10 10 11 11 9 9 9 9 10 10 9 8 8
26 22 21 22 24 24 22 22 22 21 21 20 18 18 17 15 14 14 13 13 13 12 11 11 11 11 10 10 11 11 11 12 12 10 10 10 10 10 10 10 10 9
28 26 24 22 22 23 23 22 22 21 20 20 19 19 19 17 16 16 15 15 15 14 13 12 12 12 12 12 12 12 12 13 13 11 11 11 11 11 11 11 11 11
29 28 26 24 23 22 22 22 22 22 21 20 19 19 20 19 18 18 17 18 18 16 14 14 14 12 13 14 14 13 12 13 13 13 12 11 11 11 12 12 12 12
29 29 28 26 24 23 23 22 22 22 22 21 19 18 20 20 19 18 17 18 20 18 16 16 15 14 13 13 15 14 12 12 12 12 12 12 11 11 11 11 12 11
29 29 28 27 26 24 24 23 22 22 22 22 21 19 20 20 19 19 18 17 20 19 17 16 16 15 13 13 14 15 14 13 12 11 12 13 13 13 13 12 12 11
29 29 28 27 26 25 25 25 24 23 22 22 22 21 21 21 21 21 20 19 19 20 18 17 16 16 15 14 15 16 15 14 14 14 13 13 13 14 13 12 12 13
29 29 28 27 27 26 26 26 25 24 24 23 24 23 23 22 22 22 22 22 21 21 20 19 18 18 17 16 17 18 17 16 15 15 15 15 15 14 13 12 13 14
28 28 29 28 28 27 27 26 26 26 26 25 25 24 24 24 23 22 22 24 24 24 22 21 21 20 19 19 19 19 19 19 17 17 17 17 17 16 14 13 14 15
23 25 27 29 29 28 27 27 26 25 26 27 26 25 25 24 24 24 23 24 25 25 23 21 21 22 22 22 21 20 20 19 19 18 18 18 19 19 17 17 16 16
15 20 23 26 27 27 27 27 26 24 24 26 27 26 25 24 25 26 25 25 25 25 24 22 20 20 21 22 23 23 22 21 20 20 20 19 19 19 19 19 19 19
21 23 21 21 23 23 24 25 26 25 23 24 26 27 27 26 25 26 27 27 26 26 25 24 23 22 22 22 22 24 24 23 22 22 21 21 20 20 20 20 20 20
26 26 22 19 19 20 21 21 22 22 20 20 22 25 28 28 27 28 28 29 29 29 28 27 26 25 25 24 24 25 25 26 25 24 23 23 23 22 21 22 22 21
24 24 22 20 20 20 20 20 20 19 17 17 16 19 24 27 28 28 29 30 31 31 30 30 29 28 28 27 27 27 27 28 27 27 26 25 25 25 24 24 23 23
19 18 17 18 19 19 18 20 21 21 19 17 14 12 14 20 25 27 27 29 31 32 33 32 32 31 30 29 29 28 28 29 29 29 29 28 27 26 27 27 26 26
11 10 11 12 13 14 16 17 20 21 20 18 16 13 11 13 19 25 27 27 28 30 32 33 34 33 32 31 31 30 30 31 31 31 31 30 30 29 29 30 29 29
9 8 8 8 8 8 10 12 13 15 16 16 16 16 14 13 15 19 24 27 27 27 29 32 34 35 34 34 33 32 32 32 33 33 33 32 32 32 32 32 31 31
9 9 8 7 6 5 6 6 7 8 9 10 11 14 16 17 16 16 18 22 24 24 24 27 30 33 35 36 35 34 34 34 35 35 34 34 34 34 34 34 34 34
8 7 7 7 5 4 4 4 3 3 3 5 7 10 13 15 17 18 18 18 20 21 20 21 22 25 29 33 36 37 36 36 36 36 35 35 35 35 35 35 35 35
10 10 9 8 7 6 4 4 4 2 1 1 3 6 9 11 14 16 17 18 19 19 19 20 20 20 21 24 29 34 36 37 37 37 37 36 36 36 36 36 35 35
10 11 12 11 11 10 9 8 7 6 5 4 4 4 6 8 10 13 15 16 18 19 20 22 23 22 21 19 20 25 32 36 38 38 38 37 37 37 37 37 37 36
12 12 13 12 12 13 13 12 11 10 8 7 6 6 6 6 7 9 11 13 15 17 20 22 24 25 24 21 19 20 24 31 35 38 40 40 40 39 38 37 36 37
13 13 13 13 13 13 14 15 14 14 13 10 8 7 7 7 7 7 8 10 12 14 16 19 22 23 21 21 21 21 21 25 29 33 36 38 39 39 39 38 38 38
13 13 13 13 14 14 15 15 14 14 15 13 10 8 9 8 7 7 8 9 10 11 13 15 17 18 17 17 19 19 20 22 24 27 29 31 32 33 33 34 36 37
14 14 14 14 15 16 15 15 15 14 14 14 12 9 9 10 8 7 8 9 9 11 13 14 15 15 14 14 16 16 18 20 22 24 26 27 27 28 29 30 31 33
Wind_Direction
197 200 201 200 196 194 193 195 197 197 198 199 200 204 209 214 216 212 208 208 214 217 213 216 217 212 214 223 235 240 236 234 242 250 249 248 247 245 250 263 281 297
198 203 206 203 200 198 196 195 198 199 200 201 204 205 206 212 216 212 206 204 211 218 217 219 221 216 219 232 238 235 230 231 240 249 248 248 248 250 253 258 273 291
198 203 206 206 203 201 199 198 200 202 200 202 205 206 208 211 214 213 209 208 214 218 216 218 222 222 226 233 232 227 225 231 239 244 247 248 249 253 253 256 270 281
200 203 205 205 203 202 202 202 204 205 204 205 206 206 209 212 213 214 214 217 219 220 218 217 221 226 229 230 229 228 229 233 239 241 244 245 246 251 252 255 264 268
204 205 206 206 204 203 204 206 208 208 208 209 208 206 208 209 213 215 218 220 219 220 220 219 222 229 231 228 227 230 234 236 236 235 238 242 243 249 254 255 258 262
207 209 210 210 208 205 206 208 209 210 211 212 212 209 206 207 212 214 214 215 215 217 218 218 222 228 229 226 225 228 233 234 231 230 237 241 243 251 257 254 254 261
209 210 212 213 214 212 211 211 211 213 213 214 217 215 208 207 211 214 213 212 212 214 215 217 221 225 226 226 225 228 232 233 231 232 239 240 242 250 256 253 249 256
211 211 211 213 215 217 217 216 216 216 214 214 218 219 216 213 215 217 217 216 215 214 215 218 223 226 228 228 230 232 235 236 234 233 238 243 248 253 255 254 249 253
213 212 212 212 214 217 220 220 221 220 216 215 218 220 220 221 222 221 220 220 220 218 218 222 224 225 228 231 234 237 239 241 239 234 236 243 251 254 254 254 252 253
211 212 212 212 213 216 220 222 225 225 222 221 221 221 222 223 224 224 224 224 223 222 223 226 226 226 228 233 237 240 241 245 245 241 239 241 246 251 252 254 255 255
203 207 210 212 213 215 217 221 227 230 228 226 225 223 224 224 225 226 227 226 224 224 225 225 226 226 227 231 237 240 242 245 247 248 248 247 247 248 251 256 258 261
207 205 207 209 212 215 217 221 225 231 233 231 229 228 227 227 227 227 229 229 227 226 227 228 227 226 226 231 236 239 241 243 246 249 251 254 254 250 251 256 260 263
227 217 208 206 209 213 218 221 224 227 231 231 232 231 230 231 230 229 229 230 231 231 233 234 233 230 230 232 235 238 240 242 245 248 251 254 256 256 254 255 258 261
235 229 218 210 209 210 213 216 217 220 223 226 230 232 232 232 233 232 231 231 232 234 236 238 237 234 233 233 235 237 239 242 244 246 250 253 255 257 258 257 258 258
233 231 221 214 214 213 213 214 214 214 215 218 223 230 233 232 232 234 233 232 233 234 236 237 237 237 236 236 237 237 238 241 243 245 248 252 254 256 257 258 260 260
219 220 215 213 217 219 222 224 222 220 222 223 224 231 238 237 235 234 234 234 235 235 235 236 236 238 239 240 241 241 241 241 243 245 247 249 253 255 256 258 260 261
191 197 199 202 208 214 220 224 224 227 232 233 232 236 246 245 241 238 236 236 236 236 236 236 237 239 241 242 244 245 245 244 244 246 247 248 250 252 255 257 259 260
137 146 160 169 177 192 204 211 218 227 235 239 238 241 246 247 246 242 238 237 236 237 238 237 238 240 242 243 245 246 247 246 246 247 248 248 249 250 253 256 258 260
112 114 110 114 132 155 177 189 201 217 232 242 242 242 244 248 249 247 243 239 236 236 238 239 241 243 243 244 246 248 248 247 247 247 248 249 251 252 253 255 256 258
64 75 76 71 73 90 111 128 145 176 217 240 241 238 239 242 245 246 247 245 241 238 237 238 241 244 246 247 248 249 250 250 248 248 248 250 253 255 256 257 257 258
48 45 44 42 36 34 39 48 53 55 45 291 268 255 248 245 247 248 249 248 248 248 246 243 242 243 246 248 249 250 251 250 250 248 248 249 253 256 258 259 260 260
50 38 33 32 31 28 26 22 13 4 355 337 321 303 281 269 264 261 259 254 251 253 255 255 252 250 250 250 252 253 251 249 249 248 247 248 250 253 256 258 261 261
42 33 27 26 25 23 22 21 15 7 358 342 329 325 316 303 293 283 276 269 261 256 258 260 259 257 257 256 256 256 251 247 246 248 248 249 250 252 253 256 258 260
36 31 28 25 22 16 11 8 6 7 6 358 343 336 330 319 309 302 295 289 280 271 267 267 265 264 266 265 262 261 259 252 248 248 249 250 251 253 254 255 257 259
27 24 22 22 19 14 9 3 358 358 360 359 353 345 342 337 323 310 307 305 300 291 284 279 277 276 277 275 271 270 269 264 256 251 250 251 253 255 256 257 259 260
18 20 18 17 13 10 9 9 5 359 353 353 355 353 348 346 343 333 323 318 312 303 294 289 290 292 287 282 282 281 279 276 267 259 258 259 260 262 264 265 265 265
Height
857 858 858 859 859 860 860 861 862 863 864 865 866 867 867 868 869 869 870 871 872 873 873 874 874 875 875 876 876 876 876 877 877 878 878 878 878 878 878 878 878 878
855 856 857 858 858 859 860 860 861 862 863 864 865 866 867 867 868 869 869 870 871 872 873 873 874 874 875 876 876 876 876 877 877 878 878 878 878 878 878 878 878 878
853 854 855 856 857 858 859 860 861 861 862 863 864 865 866 866 867 868 868 869 870 871 872 872 873 874 875 875 876 876 876 876 877 877 878 878 878 878 878 878 878 878
851 852 853 855 856 857 858 859 860 861 862 862 863 863 864 865 866 866 867 868 868 870 870 871 872 873 874 874 875 875 875 876 877 877 877 878 878 878 878 878 878 878
848 850 851 853 854 856 857 858 859 860 861 861 862 862 863 864 864 865 866 866 867 868 869 870 871 871 872 873 874 874 875 875 876 876 877 877 877 878 878 878 877 877
847 849 850 852 853 854 855 856 858 859 859 860 861 861 862 862 863 863 864 865 866 867 868 868 869 870 871 872 872 873 874 874 875 875 876 876 877 877 877 877 877 876
845 847 849 851 852 853 854 855 856 857 858 859 860 861 861 861 862 862 862 864 865 866 867 867 868 869 870 871 871 872 872 873 874 874 875 875 876 876 876 876 876 875
844 845 847 849 851 852 853 854 854 855 856 857 858 859 860 860 861 861 861 862 863 864 865 866 867 868 869 870 870 870 871 872 873 873 874 874 874 875 875 875 875 874
843 844 845 847 848 850 851 852 853 853 854 855 856 857 858 859 860 860 861 861 862 863 864 865 866 867 868 868 869 869 869 870 871 871 872 872 873 873 873 874 874 873
842 843 844 845 846 847 849 850 851 852 853 853 853 855 856 857 858 859 859 860 860 861 862 863 864 865 866 867 867 867 868 868 869 870 870 870 871 871 871 872 872 872
842 843 844 844 844 845 846 848 849 850 851 851 852 853 854 855 856 857 858 858 859 859 860 861 862 862 863 864 865 865 866 866 867 867 868 868 868 869 869 870 870 870
846 845 844 843 843 843 844 845 847 848 849 850 851 851 852 853 854 855 856 856 857 857 858 859 859 860 861 861 862 863 863 864 864 865 865 866 866 867 867 868 868 868
846 844 842 842 842 842 842 843 844 845 846 847 849 850 850 851 852 853 854 854 855 855 855 856 857 857 858 858 859 860 860 861 861 862 863 863 864 864 865 866 866 866
843 842 840 840 840 840 840 841 842 843 844 845 846 847 848 849 849 850 850 851 852 852 853 853 854 854 855 855 856 857 857 858 859 859 860 861 861 862 862 863 864 864
843 842 838 837 837 837 838 839 840 842 842 843 844 845 846 846 847 847 847 848 849 849 850 851 851 852 852 853 853 854 855 855 856 857 858 858 859 859 860 861 861 862
841 839 836 835 835 836 837 838 839 840 840 841 842 843 844 844 845 845 845 845 846 847 847 848 849 849 850 851 851 852 853 853 853 854 855 856 856 857 858 858 859 859
838 836 835 835 835 835 836 837 837 838 838 839 840 841 842 842 842 843 843 843 844 844 845 846 846 847 847 848 849 849 850 851 851 852 852 853 854 854 855 855 856 857
835 834 834 834 834 835 835 835 836 836 836 837 837 838 839 840 840 840 840 841 841 842 843 843 844 844 845 846 846 847 847 848 848 849 850 850 851 851 852 852 853 853
834 834 834 834 834 834 834 834 834 834 834 835 835 836 837 837 838 838 838 839 839 839 840 841 841 842 842 843 844 844 845 846 846 847 847 848 848 848 849 849 849 850
834 833 833 834 834 834 834 833 833 833 833 833 833 834 834 835 835 836 836 837 837 837 838 838 839 839 840 840 841 841 843 843 844 845 845 845 846 846 847 847 847 847
836 835 834 834 833 834 834 833 833 832 832 832 832 832 832 832 833 833 833 834 834 835 835 835 836 837 837 837 838 838 840 841 841 842 842 842 843 843 844 844 844 844
838 837 836 834 834 834 834 833 833 832 832 832 832 831 831 831 830 831 831 831 831 832 832 832 833 834 834 834 835 836 837 838 838 838 838 839 839 839 840 841 841 842
837 836 835 834 833 833 833 833 833 832 832 831 831 831 830 829 829 829 829 829 829 829 829 829 830 830 831 832 833 834 834 834 834 834 834 834 834 835 836 837 838 838
837 836 835 834 833 833 833 832 832 831 831 830 829 829 829 828 828 827 827 827 827 827 827 827 827 828 830 830 831 832 832 832 832 831 831 831 830 831 832 833 834 834
836 836 835 834 834 833 832 832 831 830 830 829 828 828 828 828 827 826 826 825 825 825 825 825 826 827 828 828 828 829 830 830 830 830 829 828 828 828 829 829 830 830
836 836 835 834 834 833 832 832 832 830 830 829 828 828 828 827 826 826 825 824 824 824 824 824 825 826 826 826 826 827 827 828 828 828 827 826 826 826 826 826 826 826